DW5247 Lemo FI current weather conditions

sailwx.info

Wind from 113 at 1 knots gusting 3

Air temperature 5.6° C
Dewpoint 2.7° C

Last reported at 2014-Oct-30 12:47 UTC.
Time now 2014-Oct-30 13:09 UTC

Location: N 62°41' E 029°49'.
View on Google Maps.

See reports from other nearby stations

  
Tides and Currents Weather Stations Pressure Air Temp Water Temp Dewpoint Dewpoint Depression Visibility Wind Speed Wind Dir Waves Ship Positions
date/time (UTC)wind fromknots sea level pressurealtimeterstation pressurevisibilityair tempwater tempwave heightnotes
2014-Oct-30 12:47 113 1 gusting 3 5.6
2014-Oct-30 12:42 068 1 gusting 3 5.6
2014-Oct-30 12:37 135 2 gusting 3 5.6
2014-Oct-30 12:32 068 2 gusting 3 5.6
2014-Oct-30 12:27 113 1 gusting 3 5.6
2014-Oct-30 12:22 113 1 gusting 5 5.6
2014-Oct-30 12:17 158 2 gusting 6 5.6
2014-Oct-30 12:12 113 3 gusting 6 5.6
2014-Oct-30 12:07 135 3 gusting 7 5.6
2014-Oct-30 12:02 068 4 gusting 7 5.6
2014-Oct-30 11:57 090 3 gusting 13 5.6
2014-Oct-30 11:52 158 3 gusting 13 5.6
2014-Oct-30 11:47 225 4 gusting 13 5.6
2014-Oct-30 11:42 113 3 gusting 6 5.6
2014-Oct-30 11:37 113 3 gusting 6 5.6
2014-Oct-30 11:32 113 3 gusting 6 5.6
2014-Oct-30 11:27 090 2 gusting 5 5.6
2014-Oct-30 11:22 090 2 gusting 7 5.6
2014-Oct-30 11:17 113 3 gusting 7 5.6
2014-Oct-30 11:12 113 3 gusting 4 5.6
2014-Oct-30 11:07 068 2 gusting 4 5.6
2014-Oct-30 11:02 135 3 gusting 7 5.6
2014-Oct-30 10:57 135 3 gusting 8 5.6
2014-Oct-30 10:52 248 2 gusting 8 5.6
2014-Oct-30 10:47 158 3 gusting 8 5.6
2014-Oct-30 10:42 068 3 gusting 7 5.6
2014-Oct-30 10:37 158 3 gusting 6 5.6
2014-Oct-30 10:32 113 3 gusting 6 5.6
2014-Oct-30 10:27 068 3 gusting 6 5.6
2014-Oct-30 10:22 158 3 gusting 6 5.6
2014-Oct-30 10:17 090 4 gusting 2 5.6
2014-Oct-30 10:12 068 3 gusting 12 5.0
2014-Oct-30 10:07 068 3 gusting 12 5.0
2014-Oct-30 10:02 068 3 gusting 12 5.0
2014-Oct-30 09:57 158 3 gusting 6 5.0
2014-Oct-30 09:52 135 3 gusting 6 5.0
2014-Oct-30 09:47 135 2 gusting 8 5.6
2014-Oct-30 09:42 135 3 gusting 9 5.0
2014-Oct-30 09:37 113 3 gusting 9 5.0
2014-Oct-30 09:32 158 4 gusting 9 5.0
2014-Oct-30 09:27 135 3 gusting 6 5.0
2014-Oct-30 09:22 090 3 gusting 7 5.0
2014-Oct-30 09:17 090 3 gusting 8 5.0
2014-Oct-30 09:12 113 4 gusting 8 5.0
2014-Oct-30 09:07 180 3 gusting 8 5.0
2014-Oct-30 09:02 135 3 gusting 9 5.0
2014-Oct-30 08:57 180 3 gusting 9 5.0
2014-Oct-30 08:52 113 4 gusting 9 5.0
2014-Oct-30 08:47 113 3 gusting 11 5.0
2014-Oct-30 08:42 135 3 gusting 11 4.4
2014-Oct-30 08:37 135 4 gusting 11 4.4
2014-Oct-30 08:32 045 3 gusting 9 4.4
2014-Oct-30 08:27 135 3 gusting 9 4.4
2014-Oct-30 08:22 158 3 gusting 7 4.4
2014-Oct-30 08:17 113 4 gusting 7 4.4
2014-Oct-30 08:12 090 3 gusting 8 4.4
2014-Oct-30 08:07 180 3 gusting 8 4.4
2014-Oct-30 08:02 135 3 gusting 8 4.4
2014-Oct-30 07:57 158 3 gusting 7 4.4
2014-Oct-30 07:52 158 4 gusting 7 4.4
2014-Oct-30 07:47 135 4 gusting 7 4.4
2014-Oct-30 07:42 180 3 gusting 6 4.4
2014-Oct-30 07:37 135 3 gusting 5 4.4
2014-Oct-30 07:32 158 3 gusting 4 4.4
2014-Oct-30 07:27 090 2 gusting 7 4.4
2014-Oct-30 07:22 113 2 gusting 7 4.4
2014-Oct-30 07:17 135 3 gusting 7 4.4
2014-Oct-30 07:12 113 3 gusting 7 4.4
2014-Oct-30 07:07 180 3 gusting 7 4.4
2014-Oct-30 07:02 135 3 gusting 7 4.4
2014-Oct-30 06:57 158 3 gusting 6 4.4
2014-Oct-30 06:52 135 4 gusting 6 4.4
2014-Oct-30 06:47 180 4 gusting 7 4.4
2014-Oct-30 06:42 158 4 gusting 11 4.4
2014-Oct-30 06:37 135 4 gusting 11 4.4
2014-Oct-30 06:32 135 4 gusting 11 4.4
2014-Oct-30 06:27 158 4 gusting 7 4.4
2014-Oct-30 06:22 135 4 gusting 6 4.4
2014-Oct-30 06:17 158 2 gusting 3 4.4
2014-Oct-30 06:12 158 1 gusting 3 4.4
2014-Oct-30 06:07 113 2 gusting 4 4.4
2014-Oct-30 06:02 068 2 gusting 5 4.4
2014-Oct-30 05:57 068 2 gusting 5 4.4
2014-Oct-30 05:52 135 2 gusting 5 4.4
2014-Oct-30 05:47 090 2 gusting 4 4.4
2014-Oct-30 05:42 113 3 gusting 5 3.9
2014-Oct-30 05:37 113 3 gusting 7 4.4
2014-Oct-30 05:32 180 3 gusting 7 4.4
2014-Oct-30 05:27 158 2 gusting 7 3.9
2014-Oct-30 05:22 225 2 gusting 9 4.4
2014-Oct-30 05:17 113 3 gusting 9 3.9
2014-Oct-30 05:12 135 3 gusting 6 3.9
2014-Oct-30 05:07 135 2 gusting 7 3.9
2014-Oct-30 05:02 135 2 gusting 7 3.9
2014-Oct-30 04:57 135 3 gusting 7 3.9
2014-Oct-30 04:52 180 2 gusting 8 3.9
2014-Oct-30 04:47 158 3 gusting 8 3.9
2014-Oct-30 04:42 135 3 gusting 8 3.9
2014-Oct-30 04:37 135 3 gusting 6 3.9
2014-Oct-30 04:32 158 3 gusting 6 3.9
2014-Oct-30 04:27 203 1 gusting 5 3.9
2014-Oct-30 04:22 135 1 gusting 5 3.9
2014-Oct-30 04:17 113 2 gusting 5 3.9
2014-Oct-30 04:12 135 5 gusting 7 3.9
2014-Oct-30 04:07 135 5 gusting 9 3.9
2014-Oct-30 04:02 135 5 gusting 9 3.9
2014-Oct-30 03:57 293 3 gusting 6 3.9
2014-Oct-30 03:52 113 3 gusting 5 3.9
2014-Oct-30 03:47 113 2 gusting 6 3.9
2014-Oct-30 03:42 135 3 gusting 6 3.9
2014-Oct-30 03:37 135 2 gusting 6 3.9
2014-Oct-30 03:32 180 2 gusting 5 3.9
2014-Oct-30 03:27 045 2 gusting 5 3.9
2014-Oct-30 03:22 158 3 gusting 4 3.9
2014-Oct-30 03:17 113 2 gusting 4 3.9
2014-Oct-30 03:12 135 2 gusting 6 3.9
2014-Oct-30 03:07 113 2 gusting 6 3.9
2014-Oct-30 03:02 113 2 gusting 6 3.9
2014-Oct-30 02:57 158 1 gusting 4 3.9
2014-Oct-30 02:52 090 1 gusting 4 3.9
2014-Oct-30 02:47 135 2 gusting 4 3.9
2014-Oct-30 02:42 158 1 gusting 5 4.4
2014-Oct-30 02:37 135 1 gusting 5 4.4
2014-Oct-30 02:32 135 1 gusting 5 4.4
2014-Oct-30 02:27 135 1 gusting 3 4.4
2014-Oct-30 02:22 158 1 gusting 3 4.4
2014-Oct-30 02:17 135 1 gusting 3 4.4
2014-Oct-30 02:12 113 1 gusting 3 4.4
2014-Oct-30 02:07 090 1 gusting 3 4.4
2014-Oct-30 02:02 135 1 gusting 3 4.4
2014-Oct-30 01:57 113 1 gusting 5 4.4
2014-Oct-30 01:52 068 1 gusting 5 4.4
2014-Oct-30 01:47 090 2 gusting 5 4.4
2014-Oct-30 01:42 135 1 gusting 2 4.4
2014-Oct-30 01:37 068 1 gusting 3 4.4
2014-Oct-30 01:32 113 1 gusting 4 4.4
2014-Oct-30 01:27 068 2 gusting 4 4.4
2014-Oct-30 01:22 090 2 gusting 3 5.0
2014-Oct-30 01:17 158 2 gusting 2 5.0
2014-Oct-30 01:12 090 2 gusting 2 5.0
2014-Oct-30 01:07 090 2 gusting 4 5.0
2014-Oct-30 01:02 090 2 gusting 4 5.0
2014-Oct-30 00:57 068 2 gusting 6 5.0
2014-Oct-30 00:52 113 2 gusting 6 5.0
2014-Oct-30 00:47 158 2 gusting 3 5.0
2014-Oct-30 00:42 113 2 gusting 3 5.0
2014-Oct-30 00:37 135 1 gusting 4 5.0
2014-Oct-30 00:32 158 1 gusting 4 5.0
2014-Oct-30 00:27 090 1 gusting 2 5.0
2014-Oct-30 00:22 113 1 gusting 5 5.0
2014-Oct-30 00:17 068 2 gusting 6 5.0
2014-Oct-30 00:12 135 2 gusting 6 5.0
2014-Oct-30 00:07 158 2 gusting 6 5.0
2014-Oct-30 00:02 113 2 gusting 8 5.0
2014-Oct-29 23:57 113 3 gusting 8 5.0
2014-Oct-29 23:52 135 3 gusting 8 5.0
2014-Oct-29 23:47 135 3 gusting 6 5.0
2014-Oct-29 23:42 113 2 gusting 3 5.0
2014-Oct-29 23:37 135 2 gusting 3 5.0
2014-Oct-29 23:32 158 1 gusting 4 5.0
2014-Oct-29 23:27 045 1 gusting 7 5.0
2014-Oct-29 23:22 090 2 gusting 7 5.0
2014-Oct-29 23:17 158 3 gusting 7 5.6
2014-Oct-29 23:12 113 3 gusting 6 5.6
2014-Oct-29 23:07 158 2 gusting 7 5.0
2014-Oct-29 23:02 135 3 gusting 7 5.0
2014-Oct-29 22:57 158 3 gusting 7 5.6
2014-Oct-29 22:52 135 3 gusting 7 5.0
2014-Oct-29 22:47 113 3 gusting 7 5.0
2014-Oct-29 22:42 158 4 gusting 9 5.0
2014-Oct-29 22:37 158 4 gusting 10 5.0
2014-Oct-29 22:32 248 5 gusting 10 5.6
2014-Oct-29 22:27 158 6 gusting 10 5.6
2014-Oct-29 22:22 045 6 gusting 10 5.6
2014-Oct-29 22:17 135 4 gusting 3 5.6
2014-Oct-29 22:12 180 4 gusting 3 5.6
2014-Oct-29 22:07 180 4 gusting 10 5.6
2014-Oct-29 21:57 180 6 gusting 10 5.6
2014-Oct-29 21:52 158 6 gusting 8 5.0
2014-Oct-29 21:47 135 4 gusting 8 5.6
2014-Oct-29 21:42 135 3 gusting 6 5.0
2014-Oct-29 21:37 203 3 gusting 8 5.6
2014-Oct-29 21:32 135 4 gusting 8 5.6
2014-Oct-29 21:27 158 5 gusting 8 5.6
2014-Oct-29 21:22 158 4 gusting 6 5.6
2014-Oct-29 21:17 135 4 gusting 6 5.6
2014-Oct-29 21:12 135 4 gusting 10 5.6
2014-Oct-29 21:07 113 5 gusting 10 5.6
2014-Oct-29 21:02 090 5 gusting 10 5.6
2014-Oct-29 20:57 135 5 gusting 9 5.6
2014-Oct-29 20:52 135 4 gusting 7 5.6
2014-Oct-29 20:47 135 4 gusting 10 5.6
2014-Oct-29 20:42 158 4 gusting 10 5.6
2014-Oct-29 20:37 180 5 gusting 10 5.6
2014-Oct-29 20:32 180 5 gusting 7 5.6
2014-Oct-29 20:27 180 4 gusting 10 5.6
2014-Oct-29 20:22 180 4 gusting 10 5.6
2014-Oct-29 20:17 158 5 gusting 10 5.6
2014-Oct-29 20:12 158 5 gusting 7 5.6
2014-Oct-29 20:07 158 4 gusting 7 5.6
2014-Oct-29 20:02 180 5 gusting 9 5.6
2014-Oct-29 19:57 113 5 gusting 9 5.6
2014-Oct-29 19:52 158 5 gusting 9 5.6
2014-Oct-29 19:47 158 5 gusting 11 5.6
2014-Oct-29 19:42 158 5 gusting 11 5.6
2014-Oct-29 19:37 180 5 gusting 11 5.6
2014-Oct-29 19:32 180 4 gusting 5 5.6
2014-Oct-29 19:27 135 4 gusting 5 5.6
2014-Oct-29 19:22 180 4 gusting 5 6.1
2014-Oct-29 19:17 135 3 gusting 5 6.1
2014-Oct-29 19:12 135 3 gusting 9 6.1
2014-Oct-29 19:07 158 3 gusting 9 6.1
2014-Oct-29 19:02 180 3 gusting 9 6.1
2014-Oct-29 18:57 180 5 gusting 12 6.7
2014-Oct-29 18:52 158 5 gusting 12 6.7
2014-Oct-29 18:47 158 6 gusting 12 6.7
2014-Oct-29 18:42 158 6 gusting 13 6.7
2014-Oct-29 18:37 180 6 gusting 13 7.2
2014-Oct-29 18:32 158 6 gusting 13 7.2
2014-Oct-29 18:27 158 6 gusting 16 7.8
2014-Oct-29 18:22 180 7 gusting 16 7.8
2014-Oct-29 18:17 158 7 gusting 12 8.3
2014-Oct-29 18:12 180 6 gusting 9 8.3
2014-Oct-29 18:07 158 4 gusting 9 8.3
2014-Oct-29 18:02 135 3 gusting 8 8.3
2014-Oct-29 17:57 158 3 gusting 8 8.3
2014-Oct-29 17:52 090 3 gusting 8 8.3
2014-Oct-29 17:47 135 3 gusting 10 8.9
2014-Oct-29 17:42 113 4 gusting 10 8.9
2014-Oct-29 17:37 248 5 gusting 12 8.9
2014-Oct-29 17:32 135 4 gusting 12 8.9
2014-Oct-29 17:27 135 3 gusting 7 8.9
2014-Oct-29 17:22 180 3 gusting 7 8.3
2014-Oct-29 17:17 023 3 gusting 7 8.9
2014-Oct-29 17:12 158 3 gusting 6 8.9
2014-Oct-29 17:07 113 4 gusting 6 8.9
2014-Oct-29 17:02 090 4 gusting 7 8.9
2014-Oct-29 16:57 113 4 gusting 7 8.3
2014-Oct-29 16:52 068 4 gusting 9 8.9
2014-Oct-29 16:47 090 3 gusting 9 8.3
2014-Oct-29 16:42 068 3 gusting 9 8.9
2014-Oct-29 16:37 068 4 gusting 6 8.9
2014-Oct-29 16:32 135 4 gusting 6 8.9
2014-Oct-29 16:27 113 4 gusting 7 8.3
2014-Oct-29 16:22 090 4 gusting 7 8.9
2014-Oct-29 16:17 023 4 gusting 7 8.9
2014-Oct-29 16:12 068 4 gusting 7 8.9
2014-Oct-29 16:07 135 4 gusting 7 8.9
2014-Oct-29 16:02 090 4 gusting 7 8.3
2014-Oct-29 15:57 090 4 gusting 7 8.3
2014-Oct-29 15:52 090 3 gusting 5 8.3
2014-Oct-29 15:47 113 3 gusting 5 8.3
2014-Oct-29 15:42 113 3 gusting 5 8.3
2014-Oct-29 15:37 113 3 gusting 5 8.3
2014-Oct-29 15:32 113 2 gusting 5 8.3
2014-Oct-29 15:27 113 2 gusting 5 8.3
2014-Oct-29 15:22 068 2 gusting 6 8.9
2014-Oct-29 15:17 068 3 gusting 6 8.9
2014-Oct-29 15:12 135 3 gusting 6 8.9
2014-Oct-29 15:07 090 3 gusting 6 8.9
2014-Oct-29 15:02 068 3 gusting 3 8.9
2014-Oct-29 14:57 113 3 gusting 4 8.9
2014-Oct-29 14:52 113 3 gusting 4 8.9
2014-Oct-29 14:47 090 2 gusting 3 8.9
2014-Oct-29 14:42 068 1 gusting 4 8.9
2014-Oct-29 14:37 113 2 gusting 4 9.4
2014-Oct-29 14:32 068 2 gusting 5 9.4
2014-Oct-29 14:27 045 3 gusting 5 9.4
2014-Oct-29 14:22 113 2 gusting 5 9.4
2014-Oct-29 14:17 045 2 gusting 4 9.4
2014-Oct-29 14:12 113 2 gusting 5 9.4
2014-Oct-29 14:07 090 3 gusting 5 9.4
2014-Oct-29 14:02 090 3 gusting 5 9.4
2014-Oct-29 13:57 090 3 gusting 4 9.4
2014-Oct-29 13:52 068 3 gusting 6 9.4
2014-Oct-29 13:47 068 3 gusting 8 9.4
2014-Oct-29 13:42 068 3 gusting 8 9.4
2014-Oct-29 13:37 090 4 gusting 8 9.4
2014-Oct-29 13:32 068 4 gusting 5 9.4
2014-Oct-29 13:27 068 3 gusting 9 9.4
2014-Oct-29 13:22 023 4 gusting 9 9.4
2014-Oct-29 13:17 068 3 gusting 9 9.4
2014-Oct-29 13:12 068 4 gusting 7 9.4
2014-Oct-29 13:07 113 4 gusting 7 9.4
2014-Oct-29 13:02 068 4 gusting 6 10.0
2014-Oct-29 12:57 045 4 gusting 6 10.0
2014-Oct-29 12:52 225 4 gusting 7 10.0
2014-Oct-29 12:47 090 4 gusting 7 10.0
2014-Oct-29 12:42 068 4 gusting 8 10.0
2014-Oct-29 12:37 113 4 gusting 8 10.0
2014-Oct-29 12:32 090 3 gusting 8 10.0
2014-Oct-29 12:27 113 3 gusting 6 10.0
2014-Oct-29 12:22 068 4 gusting 6 10.0
2014-Oct-29 12:17 068 3 gusting 7 10.0
2014-Oct-29 12:12 090 3 gusting 7 10.0
2014-Oct-29 12:07 113 4 gusting 7 10.0
2014-Oct-29 12:02 090 3 gusting 6 10.0
2014-Oct-29 11:57 068 3 gusting 8 10.0
2014-Oct-29 11:52 090 4 gusting 8 10.0
2014-Oct-29 11:47 068 4 gusting 7 10.0
2014-Oct-29 11:42 068 5 gusting 7 10.0
2014-Oct-29 11:37 135 4 gusting 8 10.0
2014-Oct-29 11:32 090 4 gusting 8 10.0
2014-Oct-29 11:27 113 4 gusting 7 10.0
2014-Oct-29 11:22 090 4 gusting 7 10.0
2014-Oct-29 11:17 113 4 gusting 7 10.0
2014-Oct-29 11:12 068 4 gusting 7 10.0
2014-Oct-29 11:07 113 5 gusting 7 10.0
2014-Oct-29 11:02 023 5 gusting 7 10.0
2014-Oct-29 10:57 023 5 gusting 7 10.0
2014-Oct-29 10:52 068 5 gusting 7 10.0
2014-Oct-29 10:47 068 5 gusting 8 10.0
2014-Oct-29 10:42 068 5 gusting 8 10.0
2014-Oct-29 10:37 090 5 gusting 8 10.0
2014-Oct-29 10:32 068 5 gusting 8 10.0
2014-Oct-29 10:27 068 6 gusting 8 10.0
2014-Oct-29 10:22 090 6 gusting 8 10.0
2014-Oct-29 10:17 068 5 gusting 8 10.0
2014-Oct-29 10:12 045 5 gusting 8 10.0
2014-Oct-29 10:07 068 4 gusting 8 10.0
2014-Oct-29 10:02 068 4 gusting 12 10.0
2014-Oct-29 09:57 068 5 gusting 12 10.0
2014-Oct-29 09:52 090 6 gusting 12 10.0
2014-Oct-29 09:47 068 5 gusting 6 10.0
2014-Oct-29 09:42 068 4 gusting 7 10.0
2014-Oct-29 09:37 068 4 gusting 7 10.0
2014-Oct-29 09:32 068 4 gusting 7 10.0
2014-Oct-29 09:27 135 5 gusting 7 9.4
2014-Oct-29 09:22 068 5 gusting 7 9.4
2014-Oct-29 09:17 113 4 gusting 7 9.4
2014-Oct-29 09:12 068 4 gusting 6 9.4
2014-Oct-29 09:07 090 5 gusting 7 9.4
2014-Oct-29 09:02 068 4 gusting 8 9.4
2014-Oct-29 08:57 090 4 gusting 8 9.4
2014-Oct-29 08:52 068 5 gusting 8 9.4
2014-Oct-29 08:47 068 4 gusting 8 9.4
2014-Oct-29 08:42 068 4 gusting 8 9.4
2014-Oct-29 08:37 248 4 gusting 8 9.4
2014-Oct-29 08:32 090 5 gusting 10 9.4
2014-Oct-29 08:27 090 5 gusting 10 9.4
2014-Oct-29 08:22 045 5 gusting 10 9.4
2014-Oct-29 08:17 068 4 gusting 7 9.4
2014-Oct-29 08:12 023 4 gusting 7 9.4
2014-Oct-29 08:07 270 4 gusting 8 9.4
2014-Oct-29 08:02 068 4 gusting 8 9.4
2014-Oct-29 07:57 090 5 gusting 8 9.4
2014-Oct-29 07:52 068 5 gusting 8 9.4
2014-Oct-29 07:47 068 5 gusting 8 9.4
2014-Oct-29 07:42 068 5 gusting 8 9.4
2014-Oct-29 07:37 068 4 gusting 8 9.4
2014-Oct-29 07:32 090 5 gusting 7 9.4
2014-Oct-29 07:27 045 5 gusting 13 9.4
2014-Oct-29 07:22 068 5 gusting 13 9.4
2014-Oct-29 07:17 090 5 gusting 6 9.4
2014-Oct-29 07:12 090 4 gusting 6 9.4
2014-Oct-29 07:07 113 3 gusting 7 9.4
2014-Oct-29 07:02 068 4 gusting 7 9.4
2014-Oct-29 06:57 090 4 gusting 7 9.4
2014-Oct-29 06:52 113 4 gusting 5 9.4
2014-Oct-29 06:47 068 4 gusting 5 9.4
2014-Oct-29 06:42 090 4 gusting 6 8.9
2014-Oct-29 06:37 158 4 gusting 6 8.9
2014-Oct-29 06:32 045 3 gusting 6 8.9
2014-Oct-29 06:27 135 3 gusting 5 8.9
2014-Oct-29 06:22 068 3 gusting 4 8.9
2014-Oct-29 06:17 090 3 gusting 4 8.9
2014-Oct-29 06:12 068 3 gusting 5 8.9
2014-Oct-29 06:07 113 3 gusting 5 8.9
2014-Oct-29 06:02 023 2 gusting 4 8.9
2014-Oct-29 05:57 068 2 gusting 4 8.9
2014-Oct-29 05:52 045 2 gusting 4 8.9
2014-Oct-29 05:47 045 2 gusting 4 9.4
2014-Oct-29 05:42 068 2 gusting 4 9.4
2014-Oct-29 05:37 045 2 gusting 4 9.4
2014-Oct-29 05:32 068 1 gusting 3 9.4
2014-Oct-29 05:27 135 2 gusting 4 9.4
2014-Oct-29 05:22 068 2 gusting 4 9.4
2014-Oct-29 05:17 090 2 gusting 4 9.4
2014-Oct-29 05:12 068 1 gusting 4 9.4
2014-Oct-29 05:07 068 1 gusting 5 9.4
2014-Oct-29 05:02 045 1 gusting 5 9.4
2014-Oct-29 04:57 045 2 gusting 5 9.4
2014-Oct-29 04:52 113 2 gusting 3 9.4
2014-Oct-29 04:47 090 2 gusting 4 9.4
2014-Oct-29 04:42 068 2 gusting 4 9.4
2014-Oct-29 04:37 068 2 gusting 4 9.4
2014-Oct-29 04:32 068 2 gusting 4 9.4
2014-Oct-29 04:27 045 2 gusting 4 9.4
2014-Oct-29 04:22 068 2 gusting 4 9.4
2014-Oct-29 04:17 113 2 gusting 3 9.4
2014-Oct-29 04:12 090 3 gusting 4 9.4
2014-Oct-29 04:07 090 3 gusting 6 9.4
2014-Oct-29 04:02 090 3 gusting 6 9.4
2014-Oct-29 03:57 068 3 gusting 6 9.4
2014-Oct-29 03:52 068 3 gusting 3 9.4
2014-Oct-29 03:47 068 2 gusting 3 9.4
2014-Oct-29 03:42 068 2 gusting 3 9.4
2014-Oct-29 03:37 068 2 gusting 4 9.4
2014-Oct-29 03:32 045 2 gusting 5 9.4
2014-Oct-29 03:27 068 2 gusting 5 10.0
2014-Oct-29 03:22 090 2 gusting 5 10.0
2014-Oct-29 03:17 023 2 gusting 4 10.0
2014-Oct-29 03:12 068 2 gusting 4 10.0
2014-Oct-29 03:07 068 2 gusting 6 10.0
2014-Oct-29 03:02 068 2 gusting 6 10.0
2014-Oct-29 02:57 090 2 gusting 6 10.0
2014-Oct-29 02:52 135 2 gusting 5 10.0
2014-Oct-29 02:47 135 2 gusting 5 10.6
2014-Oct-29 02:42 068 2 gusting 4 10.0
2014-Oct-29 02:37 293 2 gusting 4 10.6
2014-Oct-29 02:32 158 2 gusting 4 10.6
2014-Oct-29 02:27 068 3 gusting 5 10.6
2014-Oct-29 02:22 045 3 gusting 5 10.6
2014-Oct-29 02:17 068 3 gusting 3 10.6
2014-Oct-29 02:12 045 3 gusting 6 10.6
2014-Oct-29 02:07 203 3 gusting 6 10.6
2014-Oct-29 02:02 113 3 gusting 6 10.6
2014-Oct-29 01:57 068 3 gusting 6 10.6
2014-Oct-29 01:52 248 2 gusting 6 10.6
2014-Oct-29 01:47 113 2 gusting 6 10.6
2014-Oct-29 01:42 068 2 gusting 5 10.6
2014-Oct-29 01:37 090 2 gusting 6 10.6
2014-Oct-29 01:32 068 3 gusting 6 10.6
2014-Oct-29 01:27 068 3 gusting 6 10.6
2014-Oct-29 01:22 113 3 gusting 4 10.6
2014-Oct-29 01:17 068 2 gusting 5 10.6
2014-Oct-29 01:12 068 2 gusting 5 10.6
2014-Oct-29 01:07 068 2 gusting 5 10.6
2014-Oct-29 01:02 068 2 gusting 3 10.6
2014-Oct-29 00:57 068 2 gusting 6 10.6
2014-Oct-29 00:52 090 2 gusting 6 10.6
2014-Oct-29 00:47 113 2 gusting 6 10.6
2014-Oct-29 00:42 135 2 gusting 4 10.6
2014-Oct-29 00:37 113 2 gusting 4 10.6
2014-Oct-29 00:32 068 2 gusting 4 10.6
2014-Oct-29 00:27 113 2 gusting 4 10.6
2014-Oct-29 00:22 090 1 gusting 5 10.6
2014-Oct-29 00:17 113 2 gusting 5 10.6
2014-Oct-29 00:12 068 2 gusting 3 10.6
2014-Oct-29 00:07 135 2 gusting 3 10.6
2014-Oct-29 00:02 135 2 gusting 3 10.6
2014-Oct-28 23:57 113 2 gusting 4 10.6
2014-Oct-28 23:52 068 2 gusting 4 10.6
2014-Oct-28 23:47 158 2 gusting 4 10.6
2014-Oct-28 23:42 113 2 gusting 4 10.6
2014-Oct-28 23:37 068 2 gusting 4 10.6
2014-Oct-28 23:32 068 2 gusting 4 10.6
2014-Oct-28 23:27 090 2 gusting 4 10.6
2014-Oct-28 23:22 068 3 gusting 5 10.6
2014-Oct-28 23:17 023 3 gusting 5 10.6
2014-Oct-28 23:12 113 2 gusting 5 10.6
2014-Oct-28 23:07 090 2 gusting 6 10.6
2014-Oct-28 23:02 113 2 gusting 6 10.6
2014-Oct-28 22:57 068 3 gusting 6 10.6
2014-Oct-28 22:52 045 3 gusting 5 10.6
2014-Oct-28 22:47 203 2 gusting 5 10.6
2014-Oct-28 22:42 068 2 gusting 4 10.6
2014-Oct-28 22:37 113 2 gusting 6 10.6
2014-Oct-28 22:32 068 3 gusting 6 10.6
2014-Oct-28 22:27 090 3 gusting 6 10.6
2014-Oct-28 22:22 090 2 gusting 5 10.6
2014-Oct-28 22:17 068 2 gusting 5 10.6
2014-Oct-28 22:12 135 3 gusting 5 10.6
2014-Oct-28 22:07 270 3 gusting 5 10.6
2014-Oct-28 21:57 113 2 gusting 5 10.6
2014-Oct-28 21:52 090 2 gusting 6 10.6
2014-Oct-28 21:47 113 2 gusting 6 10.6
2014-Oct-28 21:42 135 3 gusting 6 10.6
2014-Oct-28 21:37 068 3 gusting 5 10.6
2014-Oct-28 21:32 068 3 gusting 6 10.6
2014-Oct-28 21:27 090 3 gusting 6 10.6
2014-Oct-28 21:22 090 2 gusting 6 10.6
2014-Oct-28 21:17 068 2 gusting 5 10.6
2014-Oct-28 21:12 045 3 gusting 4 10.6
2014-Oct-28 21:07 090 3 gusting 4 11.1
2014-Oct-28 21:02 045 2 gusting 3 11.1
2014-Oct-28 20:57 090 2 gusting 3 11.1
2014-Oct-28 20:52 135 2 gusting 4 11.1
2014-Oct-28 20:47 068 2 gusting 4 11.1
2014-Oct-28 20:42 068 3 gusting 4 11.1
2014-Oct-28 20:37 090 3 gusting 5 11.1
2014-Oct-28 20:32 113 3 gusting 5 11.1
2014-Oct-28 20:27 113 3 gusting 5 11.1
2014-Oct-28 20:22 068 3 gusting 5 11.1
2014-Oct-28 20:17 045 3 gusting 5 11.1
2014-Oct-28 20:12 068 2 gusting 5 11.1
2014-Oct-28 20:07 068 2 gusting 5 11.1
2014-Oct-28 20:02 090 3 gusting 7 11.1
2014-Oct-28 19:57 113 3 gusting 7 11.1
2014-Oct-28 19:52 068 3 gusting 7 11.1
2014-Oct-28 19:47 090 2 gusting 4 11.1
2014-Oct-28 19:42 090 2 gusting 4 11.1
2014-Oct-28 19:37 113 3 gusting 4 11.1
2014-Oct-28 19:32 135 3 gusting 4 11.1
2014-Oct-28 19:27 113 3 gusting 4 11.1
2014-Oct-28 19:22 113 2 gusting 4 11.1
2014-Oct-28 19:17 090 3 gusting 5 11.1
2014-Oct-28 19:12 158 3 gusting 5 11.1
2014-Oct-28 19:07 113 3 gusting 5 11.1
2014-Oct-28 19:02 068 3 gusting 6 11.1
2014-Oct-28 18:57 090 3 gusting 6 11.1
2014-Oct-28 18:52 180 2 gusting 6 11.1
2014-Oct-28 18:47 315 2 gusting 4 11.1
2014-Oct-28 18:42 113 2 gusting 5 11.1
2014-Oct-28 18:37 068 2 gusting 5 11.1
2014-Oct-28 18:32 090 2 gusting 5 11.1
2014-Oct-28 18:27 068 2 gusting 3 11.1
2014-Oct-28 18:22 068 2 gusting 3 11.1
2014-Oct-28 18:17 068 2 gusting 3 11.1
2014-Oct-28 18:12 068 1 gusting 3 11.1
2014-Oct-28 18:07 068 1 gusting 3 11.1
2014-Oct-28 18:02 090 1 gusting 4 11.1
2014-Oct-28 17:57 068 1 gusting 6 11.1
2014-Oct-28 17:52 068 1 gusting 6 11.1
2014-Oct-28 17:47 090 2 gusting 6 11.1
2014-Oct-28 17:42 113 2 gusting 4 11.1
2014-Oct-28 17:37 090 2 gusting 4 11.1
2014-Oct-28 17:32 068 2 gusting 3 11.1
2014-Oct-28 17:27 090 1 gusting 3 11.1
2014-Oct-28 17:22 068 1 gusting 3 11.1
2014-Oct-28 17:17 113 1 gusting 3 11.1
2014-Oct-28 17:12 113 1 gusting 3 11.1
2014-Oct-28 17:07 090 1 gusting 3 11.1
2014-Oct-28 17:02 090 1 gusting 2 11.1
2014-Oct-28 16:57 113 1 gusting 4 11.1
2014-Oct-28 16:52 068 1 gusting 4 11.1
2014-Oct-28 16:47 135 2 gusting 6 11.1
2014-Oct-28 16:42 338 3 gusting 6 11.1
2014-Oct-28 16:37 135 2 gusting 6 11.1
2014-Oct-28 16:32 135 2 gusting 5 11.1
2014-Oct-28 16:27 068 2 gusting 5 11.1
2014-Oct-28 16:22 135 2 gusting 4 11.1
2014-Oct-28 16:17 023 2 gusting 5 11.1
2014-Oct-28 16:12 090 2 gusting 5 11.1
2014-Oct-28 16:07 135 3 gusting 5 11.1
2014-Oct-28 16:02 068 2 gusting 6 11.1
2014-Oct-28 15:57 113 2 gusting 6 11.1
2014-Oct-28 15:52 068 2 gusting 6 11.1
2014-Oct-28 15:47 068 2 gusting 5 11.1
2014-Oct-28 15:42 113 2 gusting 4 11.1
2014-Oct-28 15:37 135 2 gusting 5 11.1
2014-Oct-28 15:32 068 2 gusting 5 11.1
2014-Oct-28 15:27 113 2 gusting 5 11.1
2014-Oct-28 15:22 113 2 gusting 4 11.1
2014-Oct-28 15:17 135 2 gusting 4 11.1
2014-Oct-28 15:12 180 2 gusting 4 11.1
2014-Oct-28 15:07 135 2 gusting 4 11.1
2014-Oct-28 15:02 135 2 gusting 4 11.1
2014-Oct-28 14:57 068 2 gusting 5 11.1
2014-Oct-28 14:52 113 2 gusting 5 11.1
2014-Oct-28 14:47 158 2 gusting 5 11.1
2014-Oct-28 14:42 135 2 gusting 2 11.1
2014-Oct-28 14:37 135 2 gusting 3 11.1
2014-Oct-28 14:32 068 1 gusting 3 11.1
2014-Oct-28 14:27 113 1 gusting 2 11.1
2014-Oct-28 14:22 113 1 gusting 3 11.1
2014-Oct-28 14:17 158 1 gusting 3 11.1
2014-Oct-28 14:12 180 1 gusting 3 11.1
2014-Oct-28 14:07 113 2 gusting 3 11.1
2014-Oct-28 14:02 135 2 gusting 6 11.1
2014-Oct-28 13:57 113 1 gusting 6 11.1
2014-Oct-28 13:52 113 1 gusting 6 11.1
2014-Oct-28 13:47 158 2 gusting 6 11.1
2014-Oct-28 13:42 113 1 gusting 4 11.1
2014-Oct-28 13:37 113 1 gusting 4 11.1
2014-Oct-28 13:32 068 1 gusting 6 11.1
2014-Oct-28 13:27 135 1 gusting 6 11.1
2014-Oct-28 13:22 090 1 gusting 6 11.1
2014-Oct-28 13:17 113 2 gusting 3 11.1
2014-Oct-28 13:12 090 2 gusting 3 11.1
2014-Oct-28 13:07 113 1 gusting 3 11.1
2014-Oct-28 13:02 090 1 gusting 4 11.1